GW4799 Weather Reports


time (UTC)temp
C
wind
direction
speed
KPH
gust
KPH
rain 1hr
cm
rain 24hr
cm
rain mn
cm
humidity
%
barometer
mb
20260505102021 7 164 3.2 4.8 0.00 0.00 0.00 97 1020.5
20260505101511 7 193 3.2 4.8 0.00 0.00 0.00 97 1020.3
20260505101011 8 174 3.2 4.8 0.00 0.00 0.00 95 1020.3
20260505100522 8 84 3.2 6.4 0.00 0.00 0.00 92 1020.4
20260505100011 8 53 4.8 8.0 0.00 0.00 0.00 91 1020.3
20260505095521 8 55 4.8 8.0 0.00 0.00 0.00 91 1020.1
20260505095012 8 49 4.8 6.4 0.00 0.00 0.00 89 1020.2
20260505094511 9 29 4.8 8.0 0.00 0.00 0.00 88 1020.1
20260505094012 9 20 6.4 9.7 0.00 0.00 0.00 87 1020.0
20260505093512 9 17 8.0 11.3 0.00 0.00 0.00 87 1020.0
20260505093012 9 23 6.4 11.3 0.00 0.00 0.00 87 1020.0
20260505092521 9 28 6.4 9.7 0.00 0.00 0.00 88 1019.7
20260505092011 9 17 6.4 11.3 0.00 0.00 0.00 87 1019.8
20260505091511 9 6 6.4 11.3 0.00 0.00 0.00 87 1019.7
20260505091012 9 2 4.8 9.7 0.00 0.00 0.00 88 1019.7
20260505090521 9 5 6.4 9.7 0.00 0.00 0.00 86 1019.7
20260505090011 10 7 6.4 12.9 0.00 0.00 0.00 86 1019.7
20260505085512 10 10 8.0 12.9 0.00 0.00 0.00 84 1019.6
20260505085022 10 4 8.0 11.3 0.00 0.00 0.00 86 1019.5
20260505084521 10 349 8.0 11.3 0.00 0.00 0.00 82 1019.4
20260505084044 10 1 6.4 9.7 0.00 0.00 0.00 83 1019.3
20260505083512 10 11 6.4 11.3 0.00 0.00 0.00 81 1019.3
20260505083012 10 337 8.0 14.5 0.00 0.00 0.00 82 1019.3
20260505082512 10 328 8.0 14.5 0.00 0.00 0.00 81 1019.1
20260505082011 10 341 8.0 12.9 0.00 0.00 0.00 79 1019.0
20260505081512 11 353 9.7 12.9 0.00 0.00 0.00 78 1019.0
20260505081013 11 340 11.3 19.3 0.00 0.00 0.00 80 1018.9
20260505080021 11 339 12.9 19.3 0.00 0.00 0.00 78 1018.8
20260505075522 11 345 11.3 19.3 0.00 0.00 0.00 77 1018.8
20260505075011 11 359 9.7 14.5 0.00 0.00 0.00 76 1019.0
20260505074512 11 357 12.9 19.3 0.00 0.00 0.00 76 1018.8
20260505074022 11 331 11.3 19.3 0.00 0.00 0.00 73 1018.6
20260505073511 11 322 14.5 19.3 0.00 0.00 0.00 76 1018.5
20260505073022 12 332 14.5 19.3 0.00 0.00 0.00 71 1018.6
20260505072522 12 341 12.9 19.3 0.00 0.00 0.00 70 1018.5
20260505072022 12 350 12.9 19.3 0.00 0.00 0.00 67 1018.6
20260505071522 12 350 9.7 19.3 0.00 0.00 0.00 66 1018.5
20260505071022 13 339 8.0 12.9 0.00 0.00 0.00 68 1018.2
20260505070512 13 336 9.7 16.1 0.00 0.00 0.00 65 1018.2
20260505070012 13 324 12.9 22.5 0.00 0.00 0.00 68 1018.0
20260505065522 13 333 14.5 22.5 0.00 0.00 0.00 64 1018.0
20260505065011 13 333 16.1 22.5 0.00 0.00 0.00 64 1018.0
20260505064511 14 322 11.3 19.3 0.00 0.00 0.00 62 1017.9
20260505064022 14 339 8.0 14.5 0.00 0.00 0.00 62 1017.8
20260505063522 15 339 9.7 14.5 0.00 0.00 0.00 60 1017.8
20260505063012 15 332 9.7 16.1 0.00 0.00 0.00 60 1017.8
20260505062522 15 327 9.7 19.3 0.00 0.00 0.00 60 1017.7
20260505062012 15 333 9.7 19.3 0.00 0.00 0.00 58 1017.6
20260505061521 15 335 11.3 19.3 0.00 0.00 0.00 55 1017.5
20260505061022 15 334 11.3 17.7 0.00 0.00 0.00 54 1017.4
20260505060511 15 333 11.3 17.7 0.00 0.00 0.00 55 1017.5
20260505060022 15 348 11.3 17.7 0.00 0.00 0.00 55 1017.4
20260505055523 15 357 12.9 17.7 0.00 0.00 0.00 53 1017.4
20260505055031 15 345 11.3 20.9 0.00 0.00 0.00 53 1017.2
20260505054511 16 338 12.9 22.5 0.00 0.00 0.00 51 1017.2
20260505054022 16 330 17.7 25.7 0.00 0.00 0.00 54 1017.2
20260505053512 16 322 19.3 25.7 0.00 0.00 0.00 54 1017.1
20260505053011 16 323 19.3 25.7 0.00 0.00 0.00 54 1017.0
20260505052521 16 321 20.9 27.4 0.00 0.03 0.00 54 1016.9
20260505052022 16 323 17.7 27.4 0.00 0.03 0.00 51 1016.9
20260505051521 16 329 14.5 20.9 0.00 0.03 0.00 51 1016.9
20260505051023 16 2 14.5 24.1 0.00 0.05 0.00 53 1017.1
20260505041522 16 327 19.3 29.0 0.00 0.05 0.00 54 1016.7
20260505041012 16 325 22.5 32.2 0.00 0.05 0.00 51 1016.7
20260505040521 16 318 22.5 32.2 0.00 0.05 0.00 52 1016.6
20260505040011 16 321 20.9 32.2 0.00 0.05 0.00 53 1016.7
20260505035514 16 334 17.7 30.6 0.00 0.05 0.00 54 1016.8
20260505035022 15 343 17.7 30.6 0.00 0.05 0.00 55 1016.8
20260505034533 16 346 17.7 30.6 0.00 0.05 0.00 54 1016.9
20260505034022 15 344 19.3 30.6 0.00 0.05 0.00 57 1016.7
20260505033521 15 325 20.9 33.8 0.00 0.05 0.00 55 1016.9
20260505033022 15 335 20.9 33.8 0.00 0.05 0.00 56 1016.9
20260505032511 15 333 20.9 35.4 0.00 0.05 0.00 55 1017.0
20260505032023 15 317 24.1 35.4 0.00 0.05 0.00 54 1017.1
20260505031512 15 328 24.1 35.4 0.00 0.05 0.00 57 1017.0
20260505031021 15 345 20.9 33.8 0.00 0.05 0.00 60 1017.1
20260505030511 15 5 19.3 29.0 0.00 0.05 0.00 60 1017.1
20260505030022 15 2 22.5 32.2 0.00 0.05 0.00 61 1017.1
20260505025511 15 356 20.9 32.2 0.00 0.05 0.00 60 1017.1
20260505025013 15 3 19.3 32.2 0.00 0.05 0.00 62 1017.1
20260505024521 15 355 17.7 32.2 0.00 0.05 0.00 58 1017.2
20260505024023 15 349 17.7 29.0 0.00 0.05 0.00 62 1017.4
20260505023511 15 348 19.3 29.0 0.00 0.05 0.00 59 1017.4
20260505023011 15 7 20.9 29.0 0.00 0.05 0.00 59 1017.4
20260505022522 14 15 19.3 29.0 0.00 0.08 0.00 62 1017.5
20260505022012 15 350 17.7 29.0 0.00 0.08 0.00 62 1017.6
20260505021521 14 350 17.7 29.0 0.00 0.08 0.00 62 1017.6
20260505021022 14 356 19.3 25.7 0.00 0.08 0.00 63 1017.7
20260505020535 14 357 20.9 29.0 0.00 0.08 0.00 65 1017.8
20260505020022 14 352 19.3 29.0 0.00 0.08 0.00 65 1018.0
20260505015522 14 339 19.3 27.4 0.00 0.08 0.00 61 1018.0
20260505015045 14 333 19.3 27.4 0.00 0.08 0.00 63 1018.1
20260505014521 14 330 17.7 27.4 0.00 0.08 0.00 63 1018.1
20260505014022 15 328 16.1 25.7 0.00 0.08 0.00 59 1018.1
20260505013512 14 337 14.5 25.7 0.00 0.10 0.00 63 1018.2
20260505013011 14 11 14.5 25.7 0.00 0.13 0.00 62 1018.2
20260505012522 14 20 17.7 25.7 0.00 0.13 0.00 63 1018.3
20260505012031 14 18 17.7 24.1 0.00 0.13 0.00 65 1018.2
20260505011511 14 357 14.5 24.1 0.00 0.13 0.00 65 1018.3
20260505011013 14 7 16.1 29.0 0.00 0.13 0.00 63 1018.3
20260505010511 13 22 19.3 29.0 0.00 0.13 0.00 67 1018.3
20260505010022 13 1 16.1 25.7 0.00 0.13 0.00 69 1018.2
20260505005511 14 355 14.5 24.1 0.00 0.13 0.00 63 1018.2
20260505005022 14 348 12.9 24.1 0.00 0.13 0.00 64 1018.1
20260505004511 14 338 14.5 25.7 0.00 0.13 0.00 64 1018.1
20260505004042 14 340 17.7 27.4 0.00 0.13 0.00 63 1018.1
20260505003512 13 341 19.3 27.4 0.00 0.13 0.00 64 1018.1
20260505003021 13 336 19.3 27.4 0.00 0.13 0.00 64 1018.1
20260505002511 13 336 14.5 24.1 0.00 0.13 0.00 63 1018.2
20260505002012 14 337 12.9 19.3 0.00 0.15 0.00 62 1018.1
20260505001531 13 325 14.5 24.1 0.00 0.15 0.00 63 1018.2
20260505001012 13 326 14.5 24.1 0.00 0.20 0.00 64 1017.9
20260505000522 13 325 16.1 25.7 0.00 0.23 0.00 66 1017.8
20260505000032 13 322 16.1 25.7 0.00 0.23 0.00 65 1017.8
20260504235522 13 328 14.5 25.7 0.00 0.23 0.00 67 1017.8
20260504235022 13 330 12.9 20.9 0.00 0.23 0.00 67 1017.8
20260504234512 13 327 12.9 20.9 0.00 0.23 0.00 68 1018.0
20260504234022 13 320 16.1 25.7 0.00 0.23 0.00 70 1018.0
20260504233512 13 323 14.5 25.7 0.00 0.23 0.00 66 1017.9
20260504233022 13 330 16.1 29.0 0.00 0.28 0.00 66 1017.7
20260504232522 12 334 17.7 29.0 0.00 0.30 0.00 70 1017.7
20260504232012 12 337 19.3 30.6 0.00 0.36 0.00 70 1017.5
20260504231521 12 322 20.9 30.6 0.00 0.38 0.00 71 1017.4
20260504231012 12 331 19.3 29.0 0.00 0.53 0.00 72 1017.4
20260504230534 12 345 16.1 24.1 0.00 0.53 0.00 75 1017.4
20260504230012 12 350 16.1 20.9 0.00 0.56 0.00 76 1017.4
20260504225521 11 347 12.9 20.9 0.00 0.58 0.00 75 1017.5
20260504225013 11 356 12.9 22.5 0.00 0.61 0.00 75 1017.7
20260504224512 11 4 14.5 22.5 0.00 0.64 0.00 75 1017.8
20260504224023 11 2 14.5 22.5 0.00 0.66 0.00 77 1017.8
20260504223522 11 2 11.3 17.7 0.00 0.66 0.00 74 1017.8
20260504223013 11 359 11.3 16.1 0.00 0.66 0.00 73 1017.8
20260504222523 11 359 8.0 12.9 0.00 0.71 0.00 73 1017.7
20260504222011 11 2 8.0 11.3 0.00 0.74 0.00 72 1017.7
20260504221511 11 4 8.0 11.3 0.00 0.76 0.00 68 1017.7
20260504221012 11 9 8.0 11.3 0.00 0.76 0.00 69 1017.7
20260504220521 11 9 11.3 19.3 0.00 0.76 0.00 69 1017.6
20260504220012 11 350 11.3 19.3 0.00 0.89 0.00 70 1017.5
20260504215523 10 332 11.3 19.3 0.00 0.89 0.00 73 1017.5
20260504215012 11 331 12.9 20.9 0.00 0.91 0.00 71 1017.3
20260504214522 10 324 12.9 20.9 0.00 0.94 0.00 72 1017.4
20260504214013 9 323 12.9 20.9 0.00 0.94 0.00 84 1017.3
20260504213522 8 324 12.9 19.3 0.00 0.97 0.00 88 1017.2
20260504213022 8 320 12.9 19.3 0.00 0.97 0.00 90 1017.1
20260504212522 8 322 11.3 19.3 0.00 0.97 0.00 90 1017.0
20260504212022 8 327 12.9 19.3 0.00 0.97 0.00 93 1016.9
20260504211522 7 331 11.3 16.1 0.00 0.97 0.00 95 1016.9
20260504211013 7 335 11.3 16.1 0.00 0.97 0.00 95 1016.9
20260504210512 7 333 11.3 17.7 0.00 0.97 0.00 95 1016.8
20260504210012 7 332 9.7 17.7 0.00 0.97 0.00 96 1016.7
20260504205521 7 328 9.7 16.1 0.00 0.99 0.00 96 1016.7
20260504205021 7 326 11.3 19.3 0.00 0.99 0.00 95 1016.6
20260504204522 7 324 12.9 19.3 0.00 0.99 0.00 95 1016.5
20260504204012 7 318 8.0 12.9 0.00 0.99 0.00 96 1016.5
20260504203512 7 322 11.3 17.7 0.00 0.99 0.00 95 1016.4
20260504203021 7 322 11.3 17.7 0.00 0.99 0.00 95 1016.4
20260504202511 7 320 9.7 16.1 0.00 0.99 0.00 96 1016.2
20260504202022 7 320 11.3 16.1 0.00 0.99 0.00 95 1016.3
20260504201523 7 320 9.7 16.1 0.00 0.99 0.00 95 1016.2
20260504201022 7 315 11.3 19.3 0.00 0.99 0.00 95 1016.2
20260504200522 7 315 12.9 19.3 0.00 0.99 0.00 96 1016.1
20260504200013 7 321 11.3 16.1 0.00 0.99 0.00 97 1015.9
20260504195522 7 321 9.7 16.1 0.00 0.99 0.00 97 1016.0
20260504195013 7 321 11.3 19.3 0.00 0.99 0.00 96 1016.0
20260504194522 7 322 12.9 19.3 0.00 0.99 0.00 97 1015.9
20260504194012 7 323 12.9 19.3 0.00 0.99 0.00 97 1015.9
20260504193522 7 325 11.3 17.7 0.00 0.99 0.00 97 1015.7
20260504193022 7 325 11.3 17.7 0.00 0.99 0.00 96 1015.6
20260504192512 7 326 8.0 14.5 0.00 0.99 0.00 100 1015.4
20260504192022 6 325 6.4 12.9 0.00 0.99 0.00 100 1015.3
20260504191513 6 33 4.8 9.7 0.00 1.07 0.00 100 1015.3
20260504190032 6 46 4.8 9.7 0.00 1.07 0.00 100 1015.4
20260504185522 6 90 6.4 9.7 0.00 1.22 0.00 100 1015.3
20260504185022 7 54 4.8 8.0 0.00 1.27 0.00 100 1015.1
20260504184511 7 11 4.8 12.9 0.00 1.27 0.00 99 1015.1
20260504184021 7 341 4.8 12.9 0.00 1.27 0.00 98 1015.0
20260504183512 7 329 9.7 19.3 0.00 1.27 0.00 97 1014.9
20260504183012 7 328 12.9 19.3 0.00 1.27 0.00 97 1014.8
20260504182522 7 325 12.9 19.3 0.00 1.27 0.00 98 1014.7
20260504182032 8 322 12.9 22.5 0.00 1.27 0.00 95 1014.7
20260504181512 8 319 12.9 22.5 0.00 1.27 0.00 96 1014.7
20260504181011 8 324 12.9 22.5 0.00 1.30 0.00 96 1014.8
20260504180521 8 333 12.9 20.9 0.00 1.30 0.00 97 1014.7
20260504180021 8 331 14.5 27.4 0.00 1.30 0.00 97 1014.8
20260504175512 8 330 17.7 30.6 0.00 1.30 0.00 97 1014.9
20260504175012 8 318 17.7 30.6 0.00 1.30 0.00 97 1014.8
20260504174521 8 320 19.3 27.4 0.00 1.30 0.00 95 1014.8
20260504174022 8 325 17.7 27.4 0.00 1.30 0.00 95 1014.9
20260504173512 8 329 14.5 22.5 0.00 1.30 0.00 95 1014.8
20260504173012 8 331 12.9 22.5 0.00 1.30 0.00 95 1014.7
20260504172511 8 328 12.9 17.7 0.00 1.30 0.00 96 1014.7
20260504172011 7 328 11.3 17.7 0.00 1.30 0.00 99 1014.6
20260504171521 7 332 9.7 17.7 0.00 1.30 0.00 100 1014.6
20260504171022 7 332 11.3 16.1 0.00 1.32 0.00 100 1014.6
20260504170522 7 340 9.7 16.1 0.00 1.35 0.00 100 1014.6
20260504151032 8 345 11.3 19.3 0.00 1.57 0.00 88 1015.4
20260504150512 8 334 14.5 19.3 0.00 1.60 0.00 89 1015.3
20260504141012 8 321 17.7 27.4 0.00 1.75 0.00 92 1015.5
20260504140514 8 322 17.7 25.7 0.00 1.75 0.00 95 1015.5
20260504130531 8 352 9.7 16.1 0.00 1.78 1.75 99 1015.7
20260504110523 9 350 8.0 16.1 0.00 1.80 1.75 95 1016.0